Tracking 19576 objects as of 17-Feb-2019
HD Live streaming from Space Station
objects crossing your sky now

RADUGA 1

Track RADUGA 1 now!
RADUGA 1 is classified as:


NORAD ID: 8513
Int'l Code: 1975-123A
Perigee: 35,775.2 km
Apogee: 35,798.0 km
Inclination: 9.3 °
Period: 1,435.7 minutes
Semi major axis: 42157 km
RCS: 2.5118 m2 (large)
Launch date: December 22, 1975
Source: Commonwealth of Independent States (former USSR) (CIS)
Launch site: TYURATAM MISSILE AND SPACE COMPLEX (TTMTR)
aabbcc
Your satellite tracking list
Your tracking list is empty




NASA's NSSDC Master Catalog

Two Line Element Set (TLE):
1  8513U 75123A   19047.86612639 -.00000094 +00000-0 +00000-0 0  9991
2  8513 009.3379 304.6948 0002695 208.2034 020.2903 01.00297277167965
Source of the keplerian elements: AFSPC